星链-32760 (STARLINK-32760)

导读

STARLINK-32760是美国星链计划的卫星,于2025年1月10日发射。它隶属于太空探索技术公司打造的低轨卫星互联网星座,主要承担为全球提供高速低延迟宽带网络服务的任务,尤其聚焦偏远地区网络覆盖、航空航海移动网络接入等场景,是星链星座扩容、完善全球服务能力的重要组成部分。

Basic Information
目录编号:
62568
目录名称:
STARLINK-32760
国际标识:
2025-006Q
轨道中心:
EARTH
卫星名称:
星链-32760
卫星全名:
星链-32760 (STARLINK-32760)
卫星状态:
在轨 (已飞行602 天)
发射日期:
2025-01-10 UTC
国别 :
美国 (US)
星等 :
--
Orbit Information
数据来源 国际轨道数据
星历时间: 2026-09-04T00:33:07+0800
19小时前
查看轨道信息
半长轴: 6861.157km
偏心率: 0.00016
轨道倾角: 43.002°
近地点辐角 270.498°
升交点赤经 7.471°
平近点角 89.569°
近地点: 481.922km
远地点: 484.118km
周期: 94.266分钟
每日圈数: 15.2759
Detailed Information
固有亮度:
5
最大亮度:
2.5
卫星平台:
Starlink V1.0
覆盖范围:
全球
运营商:
太空探索技术公司
运营商所在国:
美国
制造商(研发单位):
太空探索技术公司
制造商所在国:
美国
使用方式:
暂无
Satellite Introduction
Starlink 计划是 SpaceX 推出的全球卫星互联网项目,通过发射低轨道卫星,为全球尤其是偏远地区提供高速、低延迟的互联网服务。自 2019 年起,Starlink 已部署数千颗卫星,旨在缩小全球数字鸿沟,推动互联网普及。该项目还为军事、航空等行业提供通信支持,带来广泛经济效益。
2D Orbit Map
3D Orbit Map
Orbit Altitude Analysis Chart
Orbit Inclination Analysis Chart
Orbit Comprehensive Analysis Chart
View Comprehensive Chart
Conjunction Data List
Event ID Objects TCA Miss Dist (km) Collision Risk Probability Collision Risk Index (CRI) Action
CDM_260906-174405-820906-256821
2026-09-06T
17:44:12+0000
0.163 km
中距离
7.849221E-4 高风险 0.93
CDM_260906-144005-782106-256821
2026-09-06T
14:40:43+0000
0.567 km
远距离
7.754918E-5 中风险 0.73
CDM_260903-153905-808906-256821
2026-09-03T
15:39:51+0000
0.717 km
远距离
6.101359E-5 中风险 0.71
CDM_260906-161405-782106-256821
2026-09-06T
16:14:52+0000
1.099 km
极远距离
9.201538E-6 低风险 0.54
CDM_260903-140505-808906-256821
2026-09-03T
14:05:42+0000
1.273 km
极远距离
8.862691E-6 低风险 0.54
CDM_260906-161005-820906-256821
2026-09-06T
16:10:02+0000
1.498 km
极远距离
4.409751E-6 低风险 0.48
CDM_260906-130605-782106-256821
2026-09-06T
13:06:33+0000
2.199 km
极远距离
1.19227E-6 低风险 0.37
CDM_260906-143505-820906-256821
2026-09-06T
14:35:53+0000
2.818 km
极远距离
1.013694E-6 低风险 0.35
CDM_260906-174905-782106-256821
2026-09-06T
17:49:01+0000
2.795 km
极远距离
7.998712E-7 极低风险 0.33